Overview Statistics Trail Chart Weather Telemetry Raw packets
 

This is the latest recevied weather packets stored in our database for station/object W0CHP-13. If no packets are shown the sender has not sent any weather packets the latest 10 day(s).

<< 13 14 15 16 17 18 19 >>
Time Temp. Humidity Pressure Rain* Wind** Luminosity Snow
1788485115 27.22° C 79% 1009.2 hPa - - 0 W/m² -
1788484518 27.22° C 78% 1008.9 hPa - - 0 W/m² -
1788483916 27.22° C 78% 1008.9 hPa - - 0 W/m² -
1788483317 27.22° C 77% 1008.9 hPa - - 0 W/m² -
1788482717 27.78° C 77% 1008.9 hPa - - 1 W/m² -
1788482117 27.78° C 76% 1008.9 hPa - - 4 W/m² -
1788481517 27.78° C 75% 1008.9 hPa - - 9 W/m² -
1788480916 28.33° C 74% 1008.9 hPa - - 13 W/m² -
1788480318 28.33° C 75% 1008.9 hPa - - 37 W/m² -
1788479732 28.33° C 76% 1008.9 hPa - - 38 W/m² -
1788479115 28.33° C 75% 1008.9 hPa - - 35 W/m² -
1788478516 28.89° C 73% 1008.9 hPa - - 51 W/m² -
1788477918 28.89° C 71% 1008.6 hPa - - 67 W/m² -
1788477316 28.33° C 72% 1008.9 hPa - - 104 W/m² -
1788476715 28.89° C 71% 1008.9 hPa - - 67 W/m² -
1788476118 28.89° C 70% 1009.2 hPa - - 44 W/m² -
1788475516 28.89° C 69% 1008.9 hPa - - 46 W/m² -
1788474917 29.44° C 67% 1008.9 hPa - - 66 W/m² -
1788474315 30° C 66% 1008.9 hPa - - 200 W/m² -
1788473718 30° C 64% 1009.2 hPa - - 251 W/m² -
1788473115 30.56° C 63% 1009.2 hPa - - 265 W/m² -
1788472518 31.11° C 61% 1009.6 hPa - - 310 W/m² -
1788471916 31.11° C 59% 1009.2 hPa - - 304 W/m² -
1788471318 31.11° C 59% 1009.2 hPa - - 370 W/m² -
1788470716 31.11° C 60% 1009.2 hPa - - 400 W/m² -

* Rain since midnight (hover to see other rain measurements)
** Current wind speed in m/s (hover to see current wind gust speed)